Location: Unspecified
(54.1780°N, 0.0000°E)
Time: 01:40:12
(UTC+00:00)

Tiros 1 - Pass Details

Date: 27 June 2019
Orbit: 630 x 664 km, 48.4° (Epoch: 19 August)

Event Time Altitude Azimuth Distance (km) Brightness Sun altitude
Rises 01:32:33 0° 268° (W) 2,946 10.3 -10.1°
Reaches altitude 10° 01:35:03 10° 260° (W) 2,030 9.4 -10.0°
Maximum altitude 01:39:15 34° 195° (SSW) 1,042 7.7 -9.8°
Drops below altitude 10° 01:43:27 10° 130° (SE) 2,012 9.5 -9.5°
Sets 01:45:54 0° 122° (ESE) 2,915 10.4 -9.4°
